EB5ETD Weather Reports


Display with metric or nautical units.
time (UTC)temp
F
wind
direction
speed
MPH
gust
MPH
rain 1hr
in
rain 24hr
in
rain mn
in
humidity
%
barometer
mb
20260509171503 61 53 1.0 3.0 0.00 1.23 1.23 77 1019.2
20260509171004 61 37 2.0 5.0 0.00 1.23 1.23 76 1019.2
20260509170504 62 40 2.0 6.0 0.00 1.23 1.23 76 1019.0
20260509170004 62 39 3.0 6.0 0.00 1.23 1.23 76 1018.7
20260509165503 63 33 1.0 6.0 0.00 1.23 1.23 74 1018.7
20260509164504 63 1 1.0 3.0 0.00 1.23 1.23 73 1018.6
20260509164004 64 92 1.0 2.0 0.00 1.23 1.23 72 1018.7
20260509163503 63 18 1.0 2.0 0.00 1.23 1.23 73 1018.7
20260509162504 62 44 2.0 6.0 0.00 1.23 1.23 76 1018.6
20260509162004 62 55 3.0 6.0 0.00 1.23 1.23 76 1018.4
20260509161504 63 55 2.0 6.0 0.00 1.23 1.23 77 1018.5
20260509161004 62 33 1.0 5.0 0.00 1.23 1.23 77 1018.6
20260509160504 62 38 2.0 6.0 0.00 1.23 1.23 77 1018.6
20260509160004 63 56 3.0 6.0 0.00 1.23 1.23 77 1018.8
20260509155503 62 284 1.0 3.0 0.00 1.23 1.23 78 1018.8
20260509154504 60 34 2.0 5.0 0.00 1.23 1.23 82 1019.0
20260509154004 60 52 3.0 6.0 0.00 1.23 1.23 83 1018.9
20260509153504 60 42 3.0 9.0 0.00 1.23 1.23 81 1019.3
20260509153003 60 40 3.0 6.0 0.00 1.23 1.23 81 1019.1
20260509152504 60 37 3.0 7.0 0.00 1.23 1.23 80 1019.0
20260509152004 60 41 3.0 7.0 0.00 1.23 1.23 80 1018.8
20260509151504 60 212 2.0 7.0 0.00 1.23 1.23 81 1019.0
20260509151003 60 62 2.0 3.0 0.00 1.23 1.23 82 1018.7
20260509150003 61 36 2.0 6.0 0.00 1.23 1.23 83 1018.5
20260509145504 61 52 2.0 7.0 0.00 1.23 1.23 82 1018.7
20260509145003 61 60 2.0 5.0 0.00 1.23 1.23 81 1018.5
20260509144504 60 47 1.0 6.0 0.00 1.23 1.23 82 1018.8
20260509144004 59 23 3.0 6.0 0.00 1.23 1.23 82 1018.8
20260509143504 60 42 2.0 5.0 0.00 1.23 1.23 81 1018.8
20260509143004 60 49 2.0 5.0 0.00 1.23 1.23 80 1018.8
20260509142504 60 37 2.0 3.0 0.00 1.23 1.23 80 1018.6
20260509142003 60 37 2.0 6.0 0.00 1.23 1.23 81 1018.5
20260509141503 59 23 1.0 3.0 0.00 1.23 1.23 84 1018.8
20260509141004 58 40 1.0 3.0 0.00 1.23 1.23 90 1018.8
20260509135504 56 34 1.0 3.0 0.00 1.23 1.23 96 1019.4
20260509135004 55 39 3.0 5.0 0.00 1.23 1.23 96 1019.6
20260509134504 55 58 2.0 7.0 0.00 1.23 1.23 97 1019.6
20260509134004 56 30 2.0 7.0 0.00 1.23 1.23 97 1019.4
20260509133504 55 39 2.0 3.0 0.00 1.23 1.23 97 1019.5
20260509133004 56 41 2.0 5.0 0.01 1.23 1.23 97 1019.7
20260509132504 55 24 2.0 6.0 0.01 1.23 1.23 97 1019.7
20260509132004 55 54 4.0 7.0 0.01 1.23 1.23 97 1019.5
20260509131504 54 38 3.0 7.0 0.01 1.23 1.23 97 1019.7
20260509131004 55 36 2.0 5.0 0.02 1.23 1.23 97 1019.5
20260509125503 55 33 3.0 5.0 0.03 1.23 1.23 97 1019.6
20260509125003 55 30 2.0 6.0 0.03 1.23 1.23 97 1019.8
20260509124504 54 39 3.0 7.0 0.04 1.23 1.23 97 1019.8
20260509124004 54 47 3.0 7.0 0.04 1.23 1.23 97 1020.4
20260509123504 54 56 3.0 6.0 0.05 1.23 1.23 97 1020.6
20260509123004 54 30 2.0 5.0 0.05 1.22 1.22 97 1020.7
20260509122504 54 44 0.0 2.0 0.06 1.22 1.22 97 1020.9
20260509122005 54 48 1.0 2.0 0.08 1.22 1.22 97 1021.1
20260509121504 54 37 2.0 5.0 0.10 1.22 1.22 97 1021.0
20260509121004 54 223 0.0 1.0 0.12 1.21 1.21 97 1021.0
20260509120504 54 243 1.0 2.0 0.14 1.20 1.20 97 1021.2
20260509120004 54 230 1.0 2.0 0.16 1.20 1.20 97 1021.0
20260509115504 54 236 0.0 1.0 0.18 1.20 1.20 97 1020.9
20260509115004 53 236 0.0 1.0 0.20 1.20 1.20 97 1020.8
20260509114004 54 236 0.0 1.0 0.31 1.19 1.19 97 1020.8
20260509113504 54 237 0.0 1.0 0.32 1.18 1.18 97 1021.1
20260509113004 53 198 1.0 3.0 0.32 1.17 1.17 97 1021.1
20260509111504 53 75 1.0 2.0 0.31 1.12 1.12 97 1020.9
20260509111003 53 45 1.0 3.0 0.29 1.09 1.09 97 1020.9
20260509110504 53 32 2.0 3.0 0.28 1.06 1.06 97 1020.9
20260509105504 53 47 2.0 6.0 0.26 1.02 1.02 97 1021.4
20260509105004 53 247 1.0 3.0 0.25 1.00 1.00 97 1021.3
20260509104503 53 243 2.0 6.0 0.16 0.91 0.91 97 1021.8
20260509104003 53 235 2.0 5.0 0.14 0.88 0.88 97 1021.7
20260509103504 53 235 2.0 5.0 0.13 0.86 0.86 97 1021.6
20260509103004 53 228 2.0 5.0 0.12 0.85 0.85 97 1021.1
20260509102504 53 230 1.0 2.0 0.11 0.84 0.84 97 1020.9
20260509102003 53 238 1.0 2.0 0.10 0.82 0.82 97 1020.7
20260509101504 53 228 0.0 1.0 0.09 0.81 0.81 97 1021.0
20260509100503 53 43 1.0 3.0 0.15 0.78 0.78 97 1020.3
20260509100005 53 36 3.0 5.0 0.14 0.77 0.77 97 1020.3
20260509095503 53 55 1.0 2.0 0.18 0.76 0.76 98 1020.1
20260509095004 53 343 0.0 3.0 0.21 0.75 0.75 98 1020.0
20260509094504 53 49 1.0 3.0 0.22 0.75 0.75 98 1019.7
20260509093504 53 55 1.0 6.0 0.26 0.73 0.73 98 1019.7
20260509092005 54 49 2.0 3.0 0.31 0.72 0.72 98 1019.8
20260509091504 54 42 3.0 7.0 0.36 0.72 0.72 98 1019.5
20260509091004 54 50 4.0 8.0 0.32 0.67 0.67 98 1019.1
20260509090504 54 42 3.0 6.0 0.31 0.63 0.63 98 1019.7
20260509090004 54 40 2.0 9.0 0.36 0.63 0.63 97 1019.6
20260509085504 54 31 5.0 10.0 0.37 0.58 0.58 97 1018.6
20260509085004 54 45 2.0 7.0 0.35 0.54 0.54 97 1019.3
20260509084504 54 45 5.0 10.0 0.36 0.53 0.53 97 1019.0
20260509084004 54 51 6.0 9.0 0.35 0.50 0.50 97 1018.8
20260509083504 54 41 6.0 10.0 0.34 0.47 0.47 97 1018.8
20260509083005 54 42 6.0 10.0 0.33 0.45 0.45 97 1019.5
20260509082504 54 43 3.0 7.0 0.33 0.44 0.44 97 1019.6
20260509082004 55 40 3.0 6.0 0.31 0.41 0.41 97 1019.4
20260509081503 55 297 1.0 3.0 0.27 0.36 0.36 97 1019.5
20260509081005 55 216 2.0 3.0 0.28 0.35 0.35 97 1019.9
20260509080504 55 121 1.0 7.0 0.27 0.32 0.32 97 1019.4
20260509080003 55 41 2.0 6.0 0.23 0.27 0.27 97 1018.9
20260509075503 54 72 3.0 7.0 0.19 0.21 0.21 97 1019.2
20260509075003 54 52 2.0 5.0 0.18 0.19 0.19 97 1018.8
20260509074504 55 88 1.0 5.0 0.16 0.17 0.17 97 1019.0
20260509074003 55 42 4.0 6.0 0.14 0.15 0.15 97 1019.6
20260509073503 55 39 2.0 6.0 0.12 0.13 0.13 97 1020.0
20260509073003 55 63 1.0 3.0 0.12 0.12 0.12 97 1020.1
20260509072503 55 80 1.0 3.0 0.11 0.11 0.11 96 1019.9
20260509072004 55 59 1.0 5.0 0.10 0.10 0.10 96 1019.5
20260509071004 55 38 4.0 6.0 0.07 0.07 0.07 96 1019.3
20260509070503 55 35 2.0 5.0 0.05 0.05 0.05 96 1019.9
20260509065504 55 228 1.0 3.0 0.02 0.02 0.02 96 1020.3
20260509064504 55 138 1.0 3.0 0.01 0.01 0.01 95 1020.2
20260509064004 55 68 0.0 1.0 0.01 0.01 0.01 95 1019.5
20260509063504 55 104 1.0 2.0 0.01 0.01 0.01 95 1019.0
20260509063004 55 57 1.0 3.0 0.00 0.00 0.00 95 1018.9
20260509062503 55 53 2.0 5.0 0.00 0.00 0.00 95 1019.2
20260509062004 55 49 2.0 3.0 0.00 0.00 0.00 95 1019.6
20260509061005 55 12 1.0 2.0 0.00 0.00 0.00 95 1019.9
20260509060503 55 238 1.0 3.0 0.00 0.00 0.00 95 1020.4
20260509060004 55 231 2.0 3.0 0.00 0.00 0.00 95 1019.6
20260509055003 55 45 2.0 3.0 0.00 0.00 0.00 94 1018.9
20260509054503 55 218 1.0 1.0 0.00 0.00 0.00 95 1018.7
20260509053504 55 54 1.0 2.0 0.00 0.00 0.00 94 1018.6
20260509053004 55 54 0.0 0.0 0.00 0.00 0.00 94 1018.7
20260509052504 55 54 0.0 0.0 0.00 0.00 0.00 94 1018.7
20260509052004 55 54 0.0 0.0 0.00 0.00 0.00 94 1019.1
20260509051004 55 54 1.0 2.0 0.00 0.00 0.00 94 1019.3
20260509050503 55 53 1.0 2.0 0.00 0.00 0.00 94 1019.5
20260509050004 55 54 1.0 2.0 0.00 0.00 0.00 94 1019.4
20260509045503 55 30 0.0 5.0 0.00 0.00 0.00 94 1019.4
20260509045004 55 49 0.0 2.0 0.00 0.00 0.00 94 1019.2
20260509044003 55 49 1.0 1.0 0.00 0.00 0.00 94 1019.3
20260509043004 54 53 0.0 0.0 0.00 0.00 0.00 95 1019.1
20260509042503 54 53 0.0 0.0 0.00 0.00 0.00 95 1019.1
20260509042004 54 53 0.0 0.0 0.00 0.00 0.00 95 1019.1
20260509041504 54 52 0.0 0.0 0.00 0.00 0.00 95 1018.9
20260509041004 54 53 0.0 2.0 0.00 0.00 0.00 95 1019.0
20260509040503 54 53 1.0 2.0 0.00 0.00 0.00 94 1019.1
20260509040004 54 51 1.0 2.0 0.00 0.00 0.00 94 1019.1
20260509035504 54 40 1.0 2.0 0.00 0.00 0.00 94 1019.5
20260509035004 54 39 1.0 2.0 0.00 0.00 0.00 94 1019.2
20260509034504 54 38 0.0 2.0 0.00 0.00 0.00 94 1019.4
20260509034004 54 46 1.0 3.0 0.00 0.00 0.00 94 1019.1
20260509033504 54 60 1.0 2.0 0.00 0.00 0.00 94 1019.1
20260509032503 54 60 0.0 1.0 0.00 0.00 0.00 95 1019.7
20260509031503 54 60 1.0 1.0 0.00 0.00 0.00 95 1019.5
20260509031004 54 60 1.0 1.0 0.00 0.00 0.00 95 1019.6
20260509030504 54 60 1.0 1.0 0.00 0.00 0.00 95 1019.6
20260509030004 54 60 0.0 1.0 0.00 0.00 0.00 95 1019.8
20260509025504 54 60 1.0 2.0 0.00 0.00 0.00 95 1019.7
20260509025004 54 60 0.0 2.0 0.00 0.00 0.00 95 1020.0
20260509024504 54 60 1.0 2.0 0.00 0.00 0.00 95 1019.8
20260509024004 54 60 1.0 2.0 0.00 0.00 0.00 95 1019.6
20260509023504 54 61 1.0 2.0 0.00 0.00 0.00 95 1019.8
20260509023004 54 61 0.0 1.0 0.00 0.00 0.00 95 1019.8
20260509022504 54 61 0.0 1.0 0.00 0.00 0.00 95 1019.9
20260509021504 54 61 1.0 2.0 0.00 0.00 0.00 95 1020.0
20260509021004 54 61 0.0 1.0 0.00 0.00 0.00 95 1020.1
20260509020504 54 61 1.0 1.0 0.00 0.00 0.00 95 1020.1
20260509020004 54 61 1.0 2.0 0.00 0.00 0.00 95 1020.3
20260509015504 54 61 1.0 2.0 0.00 0.00 0.00 95 1020.0
20260509015004 54 62 0.0 2.0 0.00 0.00 0.00 95 1020.4
20260509014503 54 58 1.0 2.0 0.00 0.00 0.00 95 1020.4
20260509014004 54 58 0.0 0.0 0.00 0.00 0.00 95 1020.5
20260509013504 54 58 0.0 1.0 0.00 0.00 0.00 95 1020.4
20260509012504 54 58 1.0 2.0 0.00 0.00 0.00 95 1020.8
20260509012004 54 58 1.0 2.0 0.00 0.00 0.00 95 1020.8
20260509011004 54 58 1.0 2.0 0.00 0.00 0.00 95 1021.2
20260509010504 54 58 1.0 2.0 0.00 0.00 0.00 95 1021.2
20260509010004 54 58 1.0 1.0 0.00 0.00 0.00 95 1021.1
20260509005503 54 58 1.0 2.0 0.00 0.00 0.00 95 1021.2
20260509005004 54 58 1.0 2.0 0.00 0.00 0.00 95 1021.2
20260509004504 54 58 0.0 2.0 0.00 0.00 0.00 95 1021.2
20260509004004 54 53 1.0 2.0 0.00 0.00 0.00 94 1021.4
20260509003504 54 53 1.0 2.0 0.00 0.00 0.00 94 1021.2
20260509003004 54 74 1.0 3.0 0.00 0.00 0.00 94 1021.5
20260509002504 54 55 1.0 3.0 0.00 0.00 0.00 94 1021.2
20260509002004 55 55 2.0 3.0 0.00 0.00 0.00 94 1021.2
20260509001504 55 62 1.0 3.0 0.00 0.00 0.00 94 1021.3
20260509001004 55 40 1.0 5.0 0.00 0.00 0.00 94 1021.3
20260509000504 55 64 1.0 5.0 0.00 0.00 0.00 94 1021.2
20260509000004 55 72 1.0 3.0 0.00 0.00 0.00 94 1021.4
20260508235503 55 65 1.0 2.0 0.00 0.00 0.00 94 1021.3
20260508235003 55 65 1.0 2.0 0.00 0.00 0.00 94 1021.1
20260508234504 55 65 1.0 2.0 0.00 0.00 0.00 94 1021.3
20260508234004 55 65 1.0 2.0 0.00 0.00 0.00 94 1021.3
20260508233504 55 65 1.0 2.0 0.00 0.00 0.00 94 1021.4
20260508233004 55 65 0.0 1.0 0.00 0.00 0.00 93 1021.5
20260508232504 55 65 1.0 2.0 0.00 0.00 0.00 93 1021.4
20260508232004 55 65 1.0 2.0 0.00 0.00 0.00 93 1021.5
20260508231504 56 65 1.0 2.0 0.00 0.00 0.00 93 1021.5
20260508231004 56 65 1.0 2.0 0.00 0.00 0.00 93 1021.5
20260508230504 56 65 1.0 2.0 0.00 0.00 0.00 93 1021.4
20260508230003 56 64 1.0 2.0 0.00 0.00 0.00 93 1021.5
20260508224503 56 66 1.0 2.0 0.00 0.00 0.00 92 1021.5
20260508223504 56 66 1.0 1.0 0.00 0.00 0.00 92 1021.6
20260508223003 56 66 0.0 1.0 0.00 0.00 0.00 92 1021.7
20260508222504 56 66 1.0 2.0 0.00 0.00 0.00 91 1021.9
20260508222004 56 66 1.0 2.0 0.00 0.00 0.00 91 1021.7
20260508221504 56 66 0.0 1.0 0.00 0.00 0.00 91 1021.8
20260508221004 56 66 0.0 1.0 0.00 0.00 0.00 91 1021.6
20260508220004 55 66 0.0 1.0 0.00 0.00 0.00 91 1021.8
20260508215504 55 66 0.0 1.0 0.00 0.00 0.00 91 1021.7
20260508214504 55 66 0.0 1.0 0.00 0.00 0.00 92 1022.0
20260508214004 55 66 0.0 1.0 0.00 0.00 0.00 92 1021.7
20260508213003 56 66 0.0 2.0 0.00 0.00 0.00 93 1021.8
20260508212504 56 66 1.0 2.0 0.00 0.00 0.00 92 1021.8
20260508211504 56 68 1.0 2.0 0.00 0.00 0.00 92 1021.8
20260508211003 56 68 1.0 2.0 0.00 0.00 0.00 92 1021.8
20260508210004 56 66 1.0 2.0 0.00 0.00 0.00 92 1021.6
20260508205503 56 62 1.0 1.0 0.00 0.00 0.00 92 1021.5
20260508205004 56 62 1.0 3.0 0.00 0.00 0.00 91 1021.7
20260508204504 56 71 1.0 3.0 0.00 0.00 0.00 91 1021.6
20260508204004 57 61 1.0 2.0 0.00 0.00 0.00 91 1021.6
20260508203504 57 74 1.0 2.0 0.00 0.00 0.00 91 1021.5
20260508203004 57 43 1.0 2.0 0.00 0.00 0.00 91 1021.5
20260508202004 57 57 1.0 3.0 0.00 0.00 0.00 90 1021.4
20260508201003 57 63 1.0 2.0 0.00 0.00 0.00 90 1021.2
20260508200004 57 48 1.0 2.0 0.00 0.00 0.00 90 1021.1
20260508195004 57 73 1.0 2.0 0.00 0.00 0.00 89 1020.9
20260508194004 58 49 1.0 2.0 0.00 0.00 0.00 89 1020.6
20260508193504 58 37 0.0 3.0 0.00 0.00 0.00 88 1020.6
20260508193004 58 59 2.0 3.0 0.00 0.00 0.00 88 1020.7
20260508192003 58 50 1.0 2.0 0.00 0.00 0.00 87 1020.4
20260508191504 58 45 1.0 2.0 0.00 0.00 0.00 86 1020.4
20260508191004 59 48 1.0 3.0 0.00 0.00 0.00 86 1020.5
20260508190504 59 41 1.0 5.0 0.00 0.00 0.00 85 1020.5
20260508190004 59 46 2.0 3.0 0.00 0.00 0.00 84 1020.3
20260508185503 59 61 1.0 3.0 0.00 0.00 0.00 83 1020.4
20260508185004 59 47 1.0 3.0 0.00 0.00 0.00 84 1020.2
20260508184504 60 38 2.0 5.0 0.00 0.00 0.00 84 1019.9
20260508184004 60 40 2.0 5.0 0.00 0.00 0.00 83 1020.0
20260508183504 60 50 2.0 5.0 0.00 0.00 0.00 83 1020.0
20260508183004 60 31 2.0 3.0 0.00 0.00 0.00 83 1019.6
20260508182504 60 48 2.0 5.0 0.00 0.00 0.00 82 1019.7
20260508182004 60 67 2.0 5.0 0.00 0.00 0.00 81 1019.6
20260508181504 61 56 2.0 5.0 0.00 0.00 0.00 81 1019.6
20260508181004 61 50 1.0 3.0 0.00 0.00 0.00 81 1019.4
20260508180504 61 50 2.0 5.0 0.00 0.00 0.00 81 1019.6
20260508180004 61 59 0.0 2.0 0.00 0.00 0.00 80 1019.3
20260508175503 61 78 1.0 2.0 0.00 0.00 0.00 80 1019.4
20260508175004 61 74 1.0 5.0 0.00 0.00 0.00 80 1019.4
20260508174504 62 29 2.0 5.0 0.00 0.00 0.00 80 1019.3
20260508174005 61 65 1.0 3.0 0.00 0.00 0.00 79 1019.2
20260508173504 62 74 2.0 5.0 0.00 0.00 0.00 78 1019.3
20260508173004 62 45 2.0 6.0 0.00 0.00 0.00 78 1018.9
20260508172004 63 95 2.0 6.0 0.00 0.00 0.00 74 1018.9